User: anonymous   Login
Location: Mentone
(34.5413°N, 85.5351°W)
Time: 13:29:42
(UTC-05:00)
Language:

Cosmos 1703 - Orbit

View from above orbital plane
View from above orbital plane
View from above satellite
View from above satellite

Ground track
Ground track

The orbit data is extracted from the following two-line orbital elements,

1 16262U 85108A   16206.15772096  .00001372  00000-0  82990-4 0  9996
2 16262  82.4814 211.9631 0008389 335.3779  24.7049 15.09844376669390
Epoch (UTC): 24 July 2016 03:47:07
Eccentricity: 0.0008389
inclination: 82.4814°
perigee height: 531 km
apogee height: 542 km
right ascension of ascending node: 211.9631°
argument of perigee: 335.3779°
revolutions per day: 15.09844376
mean anomaly at epoch: 24.7049°
orbit number at epoch: 66939

The dashed part of the orbit path shows where the satellite is in the earth's shadow,  

DLR